Data for 01/18/2017

Time Sea-Level Adjusted Pressure Absolute Pressure Temperature Relative Humidity Dew Point   
(mb) (inHg) (mb) (inHg) (C) (F) (%) (C) (F)
00:05 1014 29.94 843 24.89 -5.4 22.3 68 -10.5 13.2
00:10 1014 29.94 843 24.89 -5.3 22.5 67 -10.5 13.2
00:15 1014 29.94 843 24.89 -5.1 22.8 68 -10.2 13.6
00:20 1014 29.94 843 24.89 -4.5 23.8 66 -9.9 14.1
00:25 1014 29.94 843 24.89 -3.9 25 63 -9.9 14.1
00:30 1014 29.94 843 24.89 -3.1 26.4 62 -9.4 15.1
00:35 1014 29.94 843 24.89 -2.8 27 61 -9.3 15.2
00:40 1013 29.91 843 24.89 -2.8 27 61 -9.2 15.4
00:45 1014 29.94 843 24.89 -2.5 27.4 61 -9.2 15.5
00:50 1014 29.94 843 24.89 -2.1 28.2 59 -9 15.8
00:55 1014 29.94 843 24.89 -2.4 27.7 60 -9.1 15.6
01:00 1014 29.94 843 24.89 -2.9 26.8 61 -9.3 15.3
01:05 1014 29.94 843 24.89 -2.3 27.8 63 -8.4 16.8
01:10 1014 29.94 843 24.89 -2 28.5 61 -8.6 16.5
01:15 1014 29.94 843 24.89 -2.1 28.3 63 -8.1 17.4
01:20 1014 29.94 843 24.89 -2.3 27.9 62 -8.5 16.7
01:25 1013 29.91 843 24.89 -2.2 28.1 62 -8.6 16.5
01:30 1013 29.91 843 24.89 -2.3 27.8 60 -9.1 15.6
01:35 1013 29.91 843 24.89 -3.1 26.4 65 -8.7 16.3
01:40 1013 29.91 843 24.89 -3.5 25.6 68 -8.6 16.5
01:45 1013 29.91 843 24.89 -3.2 26.3 66 -8.7 16.3
01:50 1013 29.91 843 24.89 -2.6 27.2 63 -8.8 16.2
01:55 1013 29.91 842 24.86 -2.5 27.5 65 -8.3 17.1
02:00 1013 29.91 842 24.86 -3.1 26.3 67 -8.4 16.8
02:05 1013 29.91 842 24.86 -3.2 26.2 66 -8.8 16.2
02:10 1013 29.91 842 24.86 -3 26.6 65 -8.7 16.3
02:15 1013 29.91 842 24.86 -3 26.7 65 -8.7 16.4
02:20 1013 29.91 842 24.86 -2.6 27.3 59 -9.5 14.8
02:25 1013 29.91 842 24.86 -2 28.3 56 -9.7 14.6
02:30 1013 29.91 842 24.86 -2.4 27.7 58 -9.6 14.7
02:35 1013 29.91 842 24.86 -2.1 28.2 55 -10 14.1
02:40 1013 29.91 842 24.86 -2.2 28 57 -9.7 14.5
02:45 1013 29.91 842 24.86 -2.3 27.8 58 -9.6 14.7
02:50 1013 29.91 842 24.86 -2.4 27.7 58 -9.5 14.9
02:55 1013 29.91 842 24.86 -2.7 27.2 59 -9.7 14.6
03:00 1013 29.91 842 24.86 -3.1 26.4 61 -9.6 14.7
03:05 1013 29.91 842 24.86 -3.7 25.4 64 -9.6 14.7
03:10 1013 29.91 842 24.86 -4.4 24 66 -9.9 14.3
03:15 1013 29.91 842 24.86 -5 22.9 69 -9.9 14.1
03:20 1013 29.91 842 24.86 -4.8 23.3 68 -9.9 14.2
03:25 1013 29.91 842 24.86 -4.6 23.7 66 -10 14.1
03:30 1013 29.91 842 24.86 -4 24.8 63 -10 13.9
03:35 1013 29.91 842 24.86 -3.5 25.7 61 -9.9 14.1
03:40 1013 29.91 842 24.86 -3.5 25.8 62 -9.8 14.3
03:45 1013 29.91 842 24.86 -3.1 26.3 60 -9.9 14.2
03:50 1012 29.88 842 24.86 -3.4 25.9 63 -9.6 14.8
03:55 1013 29.91 842 24.86 -3.9 24.9 67 -9.1 15.6
04:00 1012 29.88 842 24.86 -3.7 25.4 67 -8.9 16
04:05 1012 29.88 842 24.86 -3.9 25 69 -8.8 16.1
04:10 1012 29.88 842 24.86 -4.1 24.6 64 -10 13.9
04:15 1012 29.88 842 24.86 -3.6 25.6 64 -9.4 15
04:20 1012 29.88 842 24.86 -3.7 25.4 71 -8.1 17.4
04:25 1012 29.88 842 24.86 -3.4 25.9 69 -8.4 17
04:30 1012 29.88 842 24.86 -3.4 25.8 64 -9.2 15.4
04:35 1012 29.88 842 24.86 -3.5 25.7 65 -9.2 15.5
04:40 1012 29.88 842 24.86 -3.6 25.5 66 -9.1 15.7
04:45 1013 29.91 842 24.86 -3 26.5 64 -9 15.8
04:50 1013 29.91 842 24.86 -3 26.6 62 -9.2 15.5
04:55 1012 29.88 842 24.86 -3.2 26.3 65 -8.9 15.9
05:00 1013 29.91 842 24.86 -3.2 26.2 67 -8.6 16.5
05:05 1013 29.91 842 24.86 -3.4 25.9 67 -8.7 16.4
05:10 1013 29.91 842 24.86 -3.9 25 67 -9.2 15.4
05:15 1013 29.91 842 24.86 -4 24.8 65 -9.5 14.8
05:20 1013 29.91 842 24.86 -4.1 24.7 63 -10.1 13.8
05:25 1013 29.91 842 24.86 -4.4 24.1 66 -9.8 14.4
05:30 1013 29.91 842 24.86 -5.1 22.9 68 -10.1 13.9
05:35 1013 29.91 842 24.86 -4.8 23.3 67 -10 14
05:40 1013 29.91 842 24.86 -4.7 23.6 65 -10.3 13.5
05:45 1013 29.91 842 24.86 -4.7 23.6 66 -10.1 13.9
05:50 1012 29.88 842 24.86 -5.2 22.7 71 -9.7 14.5
05:55 1012 29.88 842 24.86 -5.2 22.6 70 -9.8 14.3
06:00 1012 29.88 841 24.83 -4.5 23.9 67 -9.6 14.6
06:05 1012 29.88 841 24.83 -4.4 24 68 -9.4 15
06:10 1012 29.88 842 24.86 -4.6 23.7 68 -9.6 14.7
06:15 1012 29.88 841 24.83 -4.8 23.4 69 -9.7 14.6
06:20 1012 29.88 841 24.83 -3.7 25.3 64 -9.5 14.9
06:25 1012 29.88 841 24.83 -3.9 25 65 -9.6 14.8
06:30 1012 29.88 841 24.83 -3.5 25.6 61 -10.1 13.8
06:35 1012 29.88 841 24.83 -2.9 26.7 62 -9.3 15.3
06:40 1012 29.88 841 24.83 -3.1 26.4 61 -9.6 14.6
06:45 1012 29.88 841 24.83 -3.1 26.4 61 -9.6 14.7
06:50 1012 29.88 841 24.83 -3.2 26.3 60 -9.8 14.3
06:55 1012 29.88 841 24.83 -3 26.7 59 -9.9 14.2
07:00 1012 29.88 841 24.83 -2.8 26.9 59 -9.8 14.3
07:05 1012 29.88 841 24.83 -2.5 27.5 56 -10.1 13.7
07:10 1012 29.88 841 24.83 -2.8 26.9 59 -9.8 14.3
07:15 1012 29.88 841 24.83 -3.1 26.4 59 -10.1 13.7
07:20 1012 29.88 841 24.83 -3.3 26.1 58 -10.3 13.4
07:25 1012 29.88 841 24.83 -2.9 26.8 58 -10 14
07:30 1012 29.88 841 24.83 -2.5 27.6 56 -10.1 13.9
07:35 1012 29.88 841 24.83 -1.9 28.5 54 -10 14
07:40 1012 29.88 841 24.83 -1.7 29 54 -9.9 14.2
07:45 1012 29.88 841 24.83 -2.1 28.2 56 -9.8 14.4
07:50 1012 29.88 841 24.83 -2.1 28.2 57 -9.6 14.7
07:55 1012 29.88 841 24.83 -2.9 26.8 62 -9.3 15.3
08:00 1011 29.85 841 24.83 -4 24.9 60 -10.7 12.7
08:05 1011 29.85 841 24.83 -3.3 26.1 59 -10.3 13.5
08:10 1011 29.85 840 24.81 -2.6 27.2 53 -10.9 12.3
08:15 1011 29.85 840 24.81 -2.2 28 51 -11.1 12.1
08:20 1011 29.85 840 24.81 -2.1 28.2 51 -11 12.2
08:25 1011 29.85 840 24.81 -2 28.4 49 -11.4 11.5
08:30 1011 29.85 840 24.81 -1.5 29.4 47 -11.3 11.6
08:35 1011 29.85 840 24.81 -1.4 29.4 48 -11.1 12.1
08:40 1011 29.85 840 24.81 -1.4 29.4 48 -11.2 11.8
08:45 1011 29.85 840 24.81 -1 30.2 47 -11.1 12.1
08:50 1011 29.85 840 24.81 -0.4 31.3 45 -10.9 12.3
08:55 1011 29.85 840 24.81 -0.4 31.3 45 -10.8 12.5
09:00 1011 29.85 840 24.81 -0.4 31.3 48 -10.2 13.7
09:05 1011 29.85 840 24.81 -1.2 29.9 50 -10.4 13.3
09:10 1011 29.85 840 24.81 -2.4 27.7 57 -9.9 14.2
09:15 1011 29.85 840 24.81 -3.5 25.7 59 -10.4 13.3
09:20 1011 29.85 840 24.81 -3.5 25.6 59 -10.3 13.4
09:25 1011 29.85 840 24.81 -3.6 25.5 60 -10.3 13.4
09:30 1011 29.85 840 24.81 -3.8 25.2 61 -10.3 13.4
09:35 1011 29.85 840 24.81 -3.8 25.1 61 -10.3 13.5
09:40 1011 29.85 840 24.81 -3.7 25.4 60 -10.3 13.5
09:45 1011 29.85 840 24.81 -3.3 26.1 60 -10.1 13.9
09:50 1011 29.85 840 24.81 -3.2 26.2 58 -10.3 13.4
09:55 1011 29.85 840 24.81 -2.3 27.9 54 -10.5 13.1
10:00 1011 29.85 840 24.81 -0.9 30.3 50 -10.2 13.6
10:05 1011 29.85 840 24.81 -0.3 31.4 49 -9.8 14.3
10:10 1011 29.85 840 24.81 -0.2 31.7 48 -10 14.1
10:15 1011 29.85 840 24.81 0.4 32.8 46 -9.8 14.3
10:20 1011 29.85 840 24.81 0.7 33.3 45 -10 13.9
10:25 1011 29.85 840 24.81 0.6 33 47 -9.4 15.1
10:30 1011 29.85 840 24.81 0.5 32.9 48 -9.3 15.2
10:35 1011 29.85 840 24.81 0.6 33.1 48 -9.2 15.5
10:40 1011 29.85 841 24.83 0.8 33.4 48 -9.1 15.6
10:45 1011 29.85 841 24.83 1.5 34.8 46 -8.9 16
10:50 1012 29.88 841 24.83 0.9 33.7 51 -8.2 17.3
10:55 1012 29.88 841 24.83 -0.4 31.3 54 -8.7 16.4
11:00 1011 29.85 841 24.83 -0.8 30.6 54 -9 15.8
11:05 1011 29.85 841 24.83 -0.9 30.4 55 -8.9 16
11:10 1011 29.85 841 24.83 -1 30.3 54 -9.2 15.4
11:15 1011 29.85 840 24.81 -0.6 31 51 -9.4 15.1
11:20 1011 29.85 840 24.81 -0.5 31.1 51 -9.4 15.1
11:25 1011 29.85 840 24.81 -0.1 31.8 48 -9.9 14.2
11:30 1011 29.85 840 24.81 0.4 32.7 49 -9.2 15.4
11:35 1011 29.85 840 24.81 0.8 33.4 46 -9.6 14.7
11:40 1011 29.85 840 24.81 1.6 34.9 43 -9.7 14.5
11:45 1011 29.85 840 24.81 2.9 37.2 41 -9.2 15.4
11:50 1011 29.85 840 24.81 3.8 38.8 39 -9.1 15.7
11:55 1011 29.85 840 24.81 3.7 38.6 39 -9 15.8
12:00 1011 29.85 840 24.81 4.5 40 36 -9.2 15.5
12:05 1011 29.85 840 24.81 4.7 40.5 37 -8.7 16.4
12:10 1010 29.83 840 24.81 4.3 39.7 38 -8.9 16
12:15 1010 29.83 840 24.81 4.6 40.3 34 -9.9 14.1
12:20 1010 29.83 840 24.81 5.1 41.1 32 -10.3 13.4
12:25 1010 29.83 840 24.81 5.2 41.4 31 -10.4 13.3
12:30 1010 29.83 839 24.78 5.4 41.7 38 -7.8 18
12:35 1010 29.83 839 24.78 3.8 38.9 41 -8.2 17.2
12:40 1010 29.83 839 24.78 3.4 38.2 41 -8.6 16.5
12:45 1010 29.83 839 24.78 3.3 38 43 -8.1 17.4
12:50 1010 29.83 839 24.78 3.3 37.9 40 -9.1 15.6
12:55 1010 29.83 839 24.78 3.7 38.6 39 -9 15.7
13:00 1010 29.83 839 24.78 4.5 40 36 -9.4 15
13:05 1010 29.83 839 24.78 4.5 40.2 39 -8.4 16.9
13:10 1010 29.83 839 24.78 4.7 40.4 40 -7.8 17.9
13:15 1010 29.83 839 24.78 4.4 40 41 -7.7 18.2
13:20 1010 29.83 839 24.78 3.9 39.1 42 -7.9 17.8
13:25 1010 29.83 839 24.78 3.8 38.8 42 -7.8 17.9
13:30 1010 29.83 839 24.78 3.3 38 44 -7.9 17.7
13:35 1010 29.83 839 24.78 3.3 37.9 41 -8.6 16.6
13:40 1010 29.83 839 24.78 3.8 38.8 39 -8.8 16.1
13:45 1010 29.83 839 24.78 4.2 39.5 39 -8.7 16.4
13:50 1010 29.83 839 24.78 3.8 38.8 40 -8.8 16.2
13:55 1010 29.83 839 24.78 3.6 38.5 40 -8.8 16.2
14:00 1010 29.83 839 24.78 3.5 38.3 39 -9.3 15.2
14:05 1010 29.83 839 24.78 3.6 38.4 40 -9 15.8
14:10 1010 29.83 839 24.78 3.6 38.6 39 -9 15.8
14:15 1010 29.83 839 24.78 3.1 37.6 40 -9.2 15.5
14:20 1010 29.83 839 24.78 2.6 36.7 42 -9 15.8
14:25 1010 29.83 839 24.78 2.9 37.2 39 -9.6 14.7
14:30 1010 29.83 839 24.78 3 37.5 41 -9 15.8
14:35 1010 29.83 839 24.78 3 37.3 39 -9.7 14.5
14:40 1010 29.83 839 24.78 2.7 36.8 40 -9.6 14.7
14:45 1010 29.83 839 24.78 2.7 36.9 39 -9.8 14.4
14:50 1009 29.8 839 24.78 2.9 37.2 37 -10.3 13.4
14:55 1009 29.8 838 24.75 3.7 38.7 36 -10 14
15:00 1009 29.8 838 24.75 4.5 40 36 -9.3 15.3
15:05 1009 29.8 838 24.75 4.3 39.7 37 -9 15.7
15:10 1009 29.8 838 24.75 3.6 38.4 38 -9.3 15.2
15:15 1009 29.8 838 24.75 3.4 38 37 -10.1 13.9
15:20 1009 29.8 838 24.75 3.3 38 37 -9.9 14.2
15:25 1009 29.8 838 24.75 3.7 38.6 36 -10.1 13.9
15:30 1009 29.8 838 24.75 3.8 38.9 35 -10.4 13.3
15:35 1009 29.8 838 24.75 4.8 40.6 32 -10.6 12.9
15:40 1009 29.8 838 24.75 4.9 40.9 33 -10.2 13.6
15:45 1009 29.8 838 24.75 5.4 41.7 30 -10.8 12.5
15:50 1009 29.8 838 24.75 5.8 42.5 30 -10.4 13.3
15:55 1009 29.8 838 24.75 5.5 41.9 31 -10.3 13.5
16:00 1009 29.8 838 24.75 5.1 41.2 33 -10.1 13.9
16:05 1009 29.8 838 24.75 4.7 40.4 31 -11.1 12.1
16:10 1008 29.77 838 24.75 5 41 31 -10.9 12.4
16:15 1008 29.77 837 24.72 4.9 40.8 32 -10.3 13.5
16:20 1008 29.77 837 24.72 5.1 41.2 33 -10.1 13.9
16:25 1008 29.77 837 24.72 5.3 41.6 32 -10 14.1
16:30 1008 29.77 837 24.72 5 40.9 32 -10.3 13.4
16:35 1008 29.77 837 24.72 4.1 39.3 33 -10.8 12.6
16:40 1008 29.77 837 24.72 3.6 38.5 33 -11.3 11.6
16:45 1008 29.77 837 24.72 3.5 38.3 33 -11.1 12
16:50 1008 29.77 837 24.72 3.4 38.1 36 -10.3 13.5
16:55 1008 29.77 838 24.75 3.2 37.8 39 -9.5 14.9
17:00 1008 29.77 838 24.75 2.7 36.8 39 -9.8 14.3
17:05 1008 29.77 838 24.75 2.2 35.9 38 -10.6 12.9
17:10 1008 29.77 838 24.75 2.5 36.6 34 -11.9 10.5
17:15 1008 29.77 838 24.75 2.8 37.1 38 -10.2 13.6
17:20 1009 29.8 838 24.75 2.5 36.4 40 -9.9 14.2
17:25 1009 29.8 838 24.75 2.2 36 40 -10.1 13.9
17:30 1009 29.8 838 24.75 1.8 35.3 42 -9.8 14.3
17:35 1009 29.8 838 24.75 1.3 34.4 45 -9.3 15.2
17:40 1009 29.8 838 24.75 1.1 34 45 -9.7 14.6
17:45 1009 29.8 838 24.75 1 33.8 47 -9.1 15.6
17:50 1009 29.8 838 24.75 0.4 32.8 46 -9.8 14.4
17:55 1009 29.8 838 24.75 1.2 34.2 43 -9.9 14.1
18:00 1008 29.77 838 24.75 1.1 34 44 -10 14
18:05 1008 29.77 838 24.75 1.2 34.1 46 -9.3 15.2
18:10 1008 29.77 837 24.72 1 33.7 45 -9.6 14.8
18:15 1008 29.77 837 24.72 1.1 34 45 -9.7 14.6
18:20 1008 29.77 837 24.72 1.2 34.1 45 -9.5 14.9
18:25 1008 29.77 837 24.72 1.3 34.4 45 -9.3 15.2
18:30 1008 29.77 837 24.72 1 33.8 46 -9.4 15.2
18:35 1008 29.77 837 24.72 0.6 33.2 47 -9.3 15.3
18:40 1008 29.77 837 24.72 0.4 32.7 49 -9.2 15.4
18:45 1008 29.77 837 24.72 0.3 32.5 48 -9.4 15.1
18:50 1008 29.77 837 24.72 0.2 32.4 49 -9.3 15.2
18:55 1007 29.74 837 24.72 0.2 32.4 48 -9.6 14.8
19:00 1007 29.74 836 24.69 0.4 32.7 49 -9.2 15.5
19:05 1007 29.74 836 24.69 0.5 33 46 -9.7 14.5
19:10 1007 29.74 836 24.69 1.5 34.7 44 -9.5 14.9
19:15 1007 29.74 836 24.69 1.8 35.2 44 -9.3 15.3
19:20 1007 29.74 836 24.69 1.6 34.8 45 -9.1 15.7
19:25 1007 29.74 836 24.69 1.7 35 44 -9.2 15.4
19:30 1007 29.74 836 24.69 2.5 36.5 43 -9 15.9
19:35 1007 29.74 836 24.69 2.5 36.5 43 -8.8 16.2
19:40 1007 29.74 836 24.69 2.3 36.1 44 -8.9 16.1
19:45 1007 29.74 836 24.69 2.3 36.1 43 -9 15.9
19:50 1007 29.74 836 24.69 2.5 36.6 43 -8.8 16.2
19:55 1007 29.74 836 24.69 2.8 37.1 42 -8.8 16.2
20:00 1007 29.74 836 24.69 2.8 37.1 43 -8.6 16.5
20:05 1007 29.74 836 24.69 2.6 36.6 44 -8.5 16.7
20:10 1007 29.74 836 24.69 2.2 36 45 -8.5 16.6
20:15 1007 29.74 836 24.69 2.3 36.2 45 -8.4 16.9
20:20 1007 29.74 836 24.69 2.3 36.1 44 -8.7 16.4
20:25 1007 29.74 836 24.69 2.5 36.4 44 -8.5 16.7
20:30 1007 29.74 836 24.69 2.4 36.2 45 -8.5 16.7
20:35 1007 29.74 836 24.69 2.3 36.1 41 -9.6 14.7
20:40 1007 29.74 836 24.69 2.1 35.8 43 -9.1 15.7
20:45 1007 29.74 836 24.69 1.7 35 44 -9.3 15.2
20:50 1007 29.74 836 24.69 1.3 34.3 45 -9.4 15.1
20:55 1007 29.74 836 24.69 1 33.8 47 -9.1 15.7
21:00 1007 29.74 836 24.69 0.3 32.6 50 -9 15.9
21:05 1007 29.74 836 24.69 0.1 32.1 53 -8.5 16.7
21:10 1007 29.74 836 24.69 -0.3 31.4 52 -8.9 16
21:15 1007 29.74 836 24.69 -0.1 31.8 53 -8.6 16.5
21:20 1007 29.74 836 24.69 0.2 32.3 51 -8.8 16.2
21:25 1007 29.74 836 24.69 0.6 33 49 -9 15.8
21:30 1007 29.74 836 24.69 1.1 34 48 -8.8 16.1
21:35 1007 29.74 836 24.69 1.1 34 48 -8.7 16.3
21:40 1006 29.71 836 24.69 0.8 33.4 53 -7.8 18
21:45 1006 29.71 836 24.69 -0.2 31.7 58 -7.4 18.6
21:50 1006 29.71 835 24.66 0.1 32.1 60 -6.7 19.9
21:55 1006 29.71 835 24.66 0.2 32.3 60 -6.7 19.9
22:00 1006 29.71 835 24.66 0.4 32.7 59 -6.7 19.9
22:05 1006 29.71 835 24.66 0.7 33.2 58 -6.6 20.1
22:10 1006 29.71 835 24.66 0.6 33.1 57 -7 19.4
22:15 1006 29.71 835 24.66 1.2 34.2 51 -7.7 18.1
22:20 1006 29.71 835 24.66 2.2 36 47 -8 17.6
22:25 1006 29.71 835 24.66 2.3 36.1 49 -7.4 18.6
22:30 1006 29.71 835 24.66 1.9 35.4 47 -8.2 17.2
22:35 1006 29.71 835 24.66 1.9 35.4 52 -7 19.4
22:40 1006 29.71 835 24.66 0.9 33.6 55 -7.2 19.1
22:45 1006 29.71 835 24.66 0.7 33.3 52 -8.1 17.5
22:50 1006 29.71 835 24.66 0.9 33.7 51 -8 17.6
22:55 1006 29.71 835 24.66 1.3 34.3 51 -7.9 17.9
23:00 1006 29.71 835 24.66 1.4 34.6 50 -7.9 17.8
23:05 1006 29.71 835 24.66 1.5 34.8 50 -7.8 17.9
23:10 1006 29.71 835 24.66 1.6 34.9 50 -7.7 18.2
23:15 1006 29.71 835 24.66 1.8 35.2 49 -7.9 17.8
23:20 1006 29.71 835 24.66 1.5 34.8 53 -7 19.4
23:25 1006 29.71 835 24.66 0.8 33.4 54 -7.5 18.4
23:30 1006 29.71 835 24.66 0.8 33.4 55 -7.3 18.9
23:35 1006 29.71 835 24.66 0.2 32.4 58 -7.1 19.2
23:40 1006 29.71 835 24.66 -0.4 31.2 58 -7.7 18.1
23:45 1006 29.71 835 24.66 0.3 32.5 56 -7.6 18.3
23:50 1006 29.71 835 24.66 -0.5 31.1 60 -7.4 18.7
23:55 1006 29.71 835 24.66 -0.4 31.3 56 -8.1 17.5
24:00 1006 29.71 835 24.66 0.1 32.2 55 -8 17.7